DW8722 Weather Reports


time (UTC)temp
C
wind
direction
speed
KPH
gust
KPH
rain 1hr
cm
rain 24hr
cm
rain mn
cm
humidity
%
barometer
mb
20260903043237 27 85 9.7 17.7 0.00 0.00 0.00 69 1012.9
20260903042250 27 107 8.0 17.7 0.00 0.00 0.00 68 1012.9
20260903040034 28 113 9.7 20.9 0.00 0.00 0.00 66 1013.0
20260903033910 28 102 8.0 17.7 0.00 0.00 0.00 65 1012.9
20260903031801 29 111 6.4 20.9 0.00 0.00 0.00 63 1012.8
20260903030803 30 136 11.3 20.9 0.00 0.00 0.00 62 1012.6
20260903025820 30 105 11.3 25.7 0.00 0.00 0.00 61 1012.7
20260903024825 30 109 9.7 25.7 0.00 0.00 0.00 60 1012.6
20260903023815 30 115 9.7 25.7 0.00 0.00 0.00 59 1012.6
20260903022824 31 136 11.3 25.7 0.00 0.00 0.00 58 1012.3
20260903021752 31 137 9.7 19.3 0.00 0.00 0.00 57 1012.1
20260903020803 31 99 9.7 19.3 0.00 0.00 0.00 56 1011.8
20260903015805 31 107 8.0 19.3 0.00 0.00 0.00 56 1011.6
20260903014749 31 78 8.0 17.7 0.00 0.00 0.00 55 1011.5
20260903013753 31 69 8.0 17.7 0.00 0.00 0.00 54 1011.4
20260903012736 32 94 11.3 19.3 0.00 0.00 0.00 54 1011.3
20260903011734 32 108 11.3 19.3 0.00 0.00 0.00 53 1011.2
20260903010758 32 89 11.3 25.7 0.00 0.00 0.00 52 1011.3
20260903005807 32 107 11.3 25.7 0.00 0.00 0.00 52 1011.1
20260903004739 32 59 11.3 22.5 0.00 0.00 0.00 53 1011.0
20260903003712 33 90 11.3 22.5 0.00 0.00 0.00 52 1010.9
20260903002640 33 113 8.0 19.3 0.00 0.00 0.00 52 1010.9
20260903001656 33 94 11.3 27.4 0.00 0.00 0.00 51 1010.9
20260903000704 34 105 14.5 32.2 0.00 0.00 0.00 50 1010.9
20260902235639 34 92 17.7 32.2 0.00 0.00 0.00 49 1010.9
20260902234618 35 94 6.4 19.3 0.00 0.00 0.00 47 1010.7
20260902232529 35 95 14.5 25.7 0.00 0.00 0.00 45 1010.6
20260902230413 36 97 9.7 19.3 0.00 0.00 0.00 42 1010.6
20260902225409 36 82 8.0 19.3 0.00 0.00 0.00 43 1010.5
20260902224413 36 76 9.7 24.1 0.00 0.00 0.00 42 1010.6
20260902223413 36 63 9.7 24.1 0.00 0.00 0.00 42 1010.5
20260902222434 36 94 11.3 25.7 0.00 0.00 0.00 42 1010.6
20260902221436 36 82 8.0 25.7 0.00 0.00 0.00 43 1010.5
20260902220425 36 87 9.7 22.5 0.00 0.00 0.00 42 1010.6
20260902214308 36 124 8.0 22.5 0.00 0.00 0.00 40 1010.7
20260902213255 36 119 9.7 22.5 0.00 0.00 0.00 40 1010.8
20260902211134 36 59 4.8 20.9 0.00 0.00 0.00 41 1011.1
20260902204954 36 83 8.0 24.1 0.00 0.00 0.00 42 1011.4
20260902203941 36 101 6.4 19.3 0.00 0.00 0.00 43 1011.6
20260902202915 36 108 6.4 19.3 0.00 0.00 0.00 42 1011.8
20260902201935 36 81 4.8 19.3 0.00 0.00 0.00 43 1011.9
20260902200950 36 54 8.0 20.9 0.00 0.00 0.00 44 1012.0
20260902195947 36 80 6.4 20.9 0.00 0.00 0.00 45 1012.1
20260902194923 36 37 3.2 17.7 0.00 0.00 0.00 45 1012.3
20260902193909 36 90 4.8 17.7 0.00 0.00 0.00 44 1012.4
20260902192844 36 42 6.4 16.1 0.00 0.00 0.00 44 1012.6
20260902191900 35 77 4.8 16.1 0.00 0.00 0.00 45 1012.7
20260902190839 35 103 8.0 17.7 0.00 0.00 0.00 46 1012.8
20260902185810 35 30 6.4 17.7 0.00 0.00 0.00 47 1013.1
20260902184820 35 67 3.2 14.5 0.00 0.00 0.00 47 1013.1
20260902183747 35 107 6.4 17.7 0.00 0.00 0.00 48 1013.4
20260902182726 35 51 6.4 20.9 0.00 0.00 0.00 49 1013.6
20260902181706 34 22 8.0 20.9 0.00 0.00 0.00 49 1013.8
20260902180712 34 54 4.8 19.3 0.00 0.00 0.00 50 1013.9
20260902175708 34 41 8.0 16.1 0.00 0.00 0.00 50 1014.3
20260902174708 34 107 3.2 19.3 0.00 0.00 0.00 52 1014.4
20260902173648 34 94 4.8 19.3 0.00 0.00 0.00 51 1014.5
20260902172617 33 95 6.4 17.7 0.00 0.00 0.00 52 1014.7
20260902171550 33 138 6.4 16.1 0.00 0.00 0.00 53 1014.8
20260902170614 33 84 8.0 16.1 0.00 0.00 0.00 54 1015.1
20260902165557 32 113 4.8 16.1 0.00 0.00 0.00 55 1015.2
20260902164607 32 84 4.8 14.5 0.00 0.00 0.00 57 1015.4
20260902163556 32 110 3.2 14.5 0.00 0.00 0.00 58 1015.4
20260902162534 31 98 3.2 12.9 0.00 0.00 0.00 59 1015.6
20260902161540 31 88 3.2 14.5 0.00 0.00 0.00 62 1015.6
20260902160551 31 93 3.2 14.5 0.00 0.00 0.00 63 1015.6
20260902155542 31 102 4.8 14.5 0.00 0.00 0.00 64 1015.7
20260902154545 30 153 3.2 14.5 0.00 0.00 0.00 65 1015.6
20260902153521 30 126 4.8 14.5 0.00 0.00 0.00 65 1015.6
20260902152525 30 143 3.2 12.9 0.00 0.00 0.00 68 1015.5
20260902150425 29 165 3.2 11.3 0.00 0.00 0.00 70 1015.4
20260902145449 28 121 0.0 3.2 0.00 0.00 0.00 72 1015.4
20260902144428 28 118 0.0 0.0 0.00 0.00 0.00 72 1015.4
20260902143402 28 107 0.0 9.7 0.00 0.00 0.00 73 1015.4
20260902142347 28 131 0.0 9.7 0.00 0.00 0.00 74 1015.4
20260902141322 28 176 3.2 12.9 0.00 0.00 0.00 74 1015.3
20260902140311 28 121 1.6 11.3 0.00 0.00 0.00 73 1015.4
20260902135246 28 96 4.8 14.5 0.00 0.00 0.00 75 1015.4
20260902131914 26 98 3.2 11.3 0.00 0.00 0.00 79 1015.4
20260902130841 25 107 0.0 8.0 0.00 0.00 0.00 82 1015.2
20260902125843 24 88 0.0 0.0 0.00 0.00 0.00 83 1015.2
20260902124813 24 103 0.0 0.0 0.00 0.00 0.00 84 1015.0
20260902123836 23 103 0.0 0.0 0.00 0.00 0.00 84 1014.9
20260902122814 23 103 0.0 0.0 0.00 0.00 0.00 84 1014.8
20260902121820 23 104 0.0 0.0 0.00 0.00 0.00 84 1014.7
20260902120824 23 116 0.0 0.0 0.00 0.00 0.00 84 1014.7
20260902115802 23 122 0.0 0.0 0.00 0.00 0.00 84 1014.6
20260902113700 23 119 1.6 4.8 0.00 0.00 0.00 84 1014.7
20260902112724 23 124 1.6 1.6 0.00 0.00 0.00 84 1014.7
20260902111704 23 119 0.0 3.2 0.00 0.00 0.00 85 1014.7
20260902110657 23 118 0.0 0.0 0.00 0.00 0.00 85 1014.7
20260902105706 23 119 0.0 0.0 0.00 0.00 0.00 85 1014.8
20260902104633 23 125 0.0 0.0 0.00 0.00 0.00 85 1014.8
20260902102502 23 126 0.0 0.0 0.00 0.00 0.00 84 1014.6
20260902101451 23 126 0.0 0.0 0.00 0.00 0.00 83 1014.6
20260902100446 24 126 0.0 0.0 0.00 0.00 0.00 83 1014.6
20260902092855 24 128 0.0 0.0 0.00 0.00 0.00 81 1014.4
20260902091822 24 128 0.0 0.0 0.00 0.00 0.00 81 1014.4
20260902090825 24 128 0.0 0.0 0.00 0.00 0.00 80 1014.4
20260902085824 25 128 0.0 0.0 0.00 0.00 0.00 80 1014.3
20260902083643 25 128 0.0 0.0 0.00 0.00 0.00 78 1014.3
20260902082643 25 128 0.0 0.0 0.00 0.00 0.00 77 1014.3
20260902081622 25 128 0.0 0.0 0.00 0.00 0.00 76 1014.3
20260902080617 25 128 0.0 0.0 0.00 0.00 0.00 76 1014.3
20260902075547 26 128 0.0 0.0 0.00 0.00 0.00 75 1014.3
20260902074517 26 128 0.0 0.0 0.00 0.00 0.00 75 1014.3
20260902073500 26 128 1.6 4.8 0.00 0.00 0.00 74 1014.3
20260902072451 26 126 0.0 3.2 0.00 0.00 0.00 74 1014.4
20260902071420 26 126 1.6 4.8 0.00 0.00 0.00 73 1014.4
20260902065307 26 138 1.6 4.8 0.00 0.00 0.00 72 1014.4
20260902064312 27 133 1.6 3.2 0.00 0.00 0.00 71 1014.4
20260902062203 27 133 0.0 0.0 0.00 0.00 0.00 69 1014.3
20260902061201 27 135 0.0 6.4 0.00 0.00 0.00 69 1014.4
20260902060213 27 138 0.0 6.4 0.00 0.00 0.00 68 1014.4
20260902055146 27 128 1.6 8.0 0.00 0.00 0.00 67 1014.3
20260902054115 27 140 1.6 8.0 0.00 0.00 0.00 66 1014.2
20260902053114 28 159 1.6 6.4 0.00 0.00 0.00 66 1014.2
20260902052122 28 137 1.6 6.4 0.00 0.00 0.00 65 1014.2
20260902051143 28 136 1.6 6.4 0.00 0.00 0.00 64 1014.2
20260902050200 28 135 1.6 6.4 0.00 0.00 0.00 62 1014.2
20260902045149 28 138 1.6 11.3 0.00 0.00 0.00 62 1014.2
20260902044154 28 136 1.6 11.3 0.00 0.00 0.00 62 1014.2